TimeCST,TemperatureF,Dew PointF,Humidity,Sea Level PressureIn,VisibilityMPH,Wind Direction,Wind SpeedMPH,Gust SpeedMPH,PrecipitationIn,Events,Conditions,WindDirDegrees,DateUTC
12:15 AM,27.3,14.9,60,30.30,10.0,Calm,Calm,-,N/A,,Overcast,0,2013-02-02 06:15:00
12:35 AM,27.5,14.7,59,30.29,10.0,Calm,Calm,-,N/A,,Overcast,0,2013-02-02 06:35:00
12:55 AM,27.5,14.9,59,30.30,10.0,Calm,Calm,-,N/A,,Mostly Cloudy,0,2013-02-02 06:55:00
1:15 AM,27.5,15.4,61,30.30,10.0,South,3.5,-,N/A,,Overcast,170,2013-02-02 07:15:00
1:35 AM,27.5,15.1,60,30.29,10.0,Calm,Calm,-,N/A,,Overcast,0,2013-02-02 07:35:00
1:55 AM,27.9,15.3,59,30.28,10.0,SSE,3.5,-,N/A,,Overcast,160,2013-02-02 07:55:00
2:15 AM,27.9,15.3,59,30.28,10.0,South,5.8,-,N/A,,Overcast,170,2013-02-02 08:15:00
2:35 AM,28.0,15.1,58,30.27,10.0,South,4.6,-,N/A,,Overcast,170,2013-02-02 08:35:00
2:55 AM,28.2,15.3,58,30.26,10.0,South,3.5,-,N/A,,Overcast,180,2013-02-02 08:55:00
3:15 AM,28.4,15.6,59,30.25,10.0,South,3.5,-,N/A,,Overcast,180,2013-02-02 09:15:00
3:35 AM,28.6,15.3,58,30.24,10.0,South,3.5,-,N/A,,Overcast,180,2013-02-02 09:35:00
3:55 AM,28.8,15.6,58,30.24,10.0,South,4.6,-,N/A,,Overcast,190,2013-02-02 09:55:00
4:15 AM,28.9,16.3,59,30.23,10.0,SSE,3.5,-,N/A,,Overcast,160,2013-02-02 10:15:00
4:35 AM,28.9,16.5,60,30.21,10.0,SE,3.5,-,N/A,,Overcast,140,2013-02-02 10:35:00
4:55 AM,29.3,16.5,59,30.21,10.0,SSE,5.8,-,N/A,,Overcast,160,2013-02-02 10:55:00
5:15 AM,29.3,16.7,59,30.19,10.0,SSE,5.8,-,N/A,,Overcast,160,2013-02-02 11:15:00
5:35 AM,30.0,16.7,58,30.21,10.0,SW,8.1,-,N/A,,Overcast,220,2013-02-02 11:35:00
5:55 AM,29.5,16.9,59,30.20,10.0,South,4.6,-,N/A,,Scattered Clouds,190,2013-02-02 11:55:00
6:15 AM,28.8,16.9,61,30.19,10.0,South,4.6,-,N/A,,Clear,180,2013-02-02 12:15:00
6:35 AM,28.0,17.1,63,30.19,10.0,South,6.9,-,N/A,,Clear,190,2013-02-02 12:35:00
6:55 AM,28.2,16.7,62,30.19,10.0,South,4.6,-,N/A,,Clear,190,2013-02-02 12:55:00
7:15 AM,28.8,17.4,63,30.18,10.0,South,5.8,-,N/A,,Scattered Clouds,190,2013-02-02 13:15:00
7:35 AM,30.7,17.8,59,30.17,10.0,SSW,8.1,-,N/A,,Overcast,200,2013-02-02 13:35:00
7:55 AM,30.9,18.1,59,30.18,10.0,SSW,8.1,-,N/A,,Overcast,200,2013-02-02 13:55:00
8:15 AM,31.3,18.5,59,30.18,10.0,SSW,9.2,-,N/A,,Overcast,200,2013-02-02 14:15:00
8:35 AM,32.0,19.8,61,30.17,10.0,South,8.1,-,N/A,,Overcast,190,2013-02-02 14:35:00
8:55 AM,32.2,20.1,61,30.17,10.0,SSW,8.1,-,N/A,,Scattered Clouds,200,2013-02-02 14:55:00
9:15 AM,33.1,20.7,60,30.16,10.0,SSW,8.1,-,N/A,,Mostly Cloudy,200,2013-02-02 15:15:00
9:35 AM,34.5,20.8,57,30.16,10.0,SW,9.2,-,N/A,,Scattered Clouds,220,2013-02-02 15:35:00
9:55 AM,35.6,20.7,55,30.16,10.0,SW,11.5,17.3,N/A,,Mostly Cloudy,230,2013-02-02 15:55:00
10:15 AM,36.0,20.8,54,30.15,10.0,WSW,8.1,18.4,N/A,,Overcast,240,2013-02-02 16:15:00
10:35 AM,36.5,21.2,54,30.15,10.0,WSW,10.4,-,N/A,,Overcast,240,2013-02-02 16:35:00
10:55 AM,37.2,21.2,52,30.15,10.0,WSW,13.8,19.6,N/A,,Overcast,240,2013-02-02 16:55:00
11:15 AM,37.0,22.6,56,30.14,10.0,SW,10.4,-,N/A,,Overcast,230,2013-02-02 17:15:00
11:35 AM,37.4,23.2,57,30.14,10.0,WSW,11.5,-,N/A,,Overcast,240,2013-02-02 17:35:00
11:55 AM,38.7,24.3,56,30.13,10.0,WSW,15.0,20.7,N/A,,Mostly Cloudy,240,2013-02-02 17:55:00
12:15 PM,38.3,23.9,56,30.11,10.0,WSW,12.7,17.3,N/A,,Mostly Cloudy,240,2013-02-02 18:15:00
12:35 PM,38.7,24.3,56,30.10,10.0,SW,12.7,18.4,N/A,,Overcast,230,2013-02-02 18:35:00
12:55 PM,39.0,25.7,59,30.08,10.0,SW,9.2,-,N/A,,Overcast,230,2013-02-02 18:55:00
1:15 PM,38.7,27.7,65,30.09,10.0,SW,10.4,-,N/A,,Scattered Clouds,230,2013-02-02 19:15:00
1:35 PM,38.7,28.6,67,30.09,10.0,WSW,15.0,18.4,N/A,,Clear,240,2013-02-02 19:35:00
1:55 PM,40.1,29.1,65,30.09,10.0,WSW,12.7,17.3,N/A,,Clear,240,2013-02-02 19:55:00
2:15 PM,40.1,28.9,64,30.09,10.0,WSW,11.5,-,N/A,,Clear,250,2013-02-02 20:15:00
2:35 PM,40.1,28.4,63,30.09,10.0,West,11.5,-,N/A,,Clear,270,2013-02-02 20:35:00
2:55 PM,40.5,27.9,61,30.09,10.0,WSW,8.1,16.1,N/A,,Clear,250,2013-02-02 20:55:00
3:15 PM,41.0,28.6,61,30.09,10.0,West,9.2,-,N/A,,Clear,260,2013-02-02 21:15:00
3:35 PM,41.0,28.4,61,30.09,10.0,WSW,8.1,-,N/A,,Clear,250,2013-02-02 21:35:00
3:55 PM,41.2,27.9,59,30.09,10.0,WSW,5.8,-,N/A,,Clear,250,2013-02-02 21:55:00
4:15 PM,41.2,27.7,59,30.09,10.0,WSW,6.9,-,N/A,,Clear,250,2013-02-02 22:15:00
4:35 PM,40.5,28.0,61,30.09,10.0,WSW,6.9,-,N/A,,Mostly Cloudy,240,2013-02-02 22:35:00
4:55 PM,40.5,28.6,63,30.10,10.0,WSW,4.6,-,N/A,,Overcast,240,2013-02-02 22:55:00
5:35 PM,40.1,29.5,66,30.11,10.0,SW,8.1,-,N/A,,Overcast,230,2013-02-02 23:35:00
5:55 PM,40.1,29.7,66,30.11,10.0,SW,8.1,-,N/A,,Overcast,230,2013-02-02 23:55:00
6:15 PM,39.7,30.0,68,30.12,10.0,SW,6.9,-,N/A,,Overcast,230,2013-02-03 00:15:00
6:35 PM,39.7,30.2,69,30.12,10.0,SW,8.1,-,N/A,,Overcast,230,2013-02-03 00:35:00
6:55 PM,40.1,30.6,69,30.12,10.0,WSW,5.8,-,N/A,,Overcast,240,2013-02-03 00:55:00
7:15 PM,39.6,30.7,71,30.13,10.0,WSW,4.6,-,N/A,,Overcast,250,2013-02-03 01:15:00
7:35 PM,39.4,30.9,72,30.13,10.0,West,3.5,-,N/A,,Overcast,260,2013-02-03 01:35:00
7:55 PM,38.3,30.4,73,30.13,10.0,WSW,4.6,-,N/A,,Mostly Cloudy,250,2013-02-03 01:55:00
8:15 PM,38.7,31.3,75,30.13,10.0,Calm,Calm,-,N/A,,Scattered Clouds,0,2013-02-03 02:15:00
8:35 PM,37.8,29.7,73,30.12,10.0,WNW,4.6,-,N/A,,Clear,290,2013-02-03 02:35:00
8:55 PM,37.2,28.4,70,30.13,10.0,WNW,4.6,-,N/A,,Scattered Clouds,290,2013-02-03 02:55:00
9:15 PM,36.7,28.4,72,30.13,10.0,WNW,3.5,-,N/A,,Mostly Cloudy,290,2013-02-03 03:15:00
9:35 PM,37.4,28.2,69,30.13,10.0,WNW,3.5,-,N/A,,Overcast,290,2013-02-03 03:35:00
9:55 PM,37.9,27.7,67,30.13,10.0,West,4.6,-,N/A,,Overcast,280,2013-02-03 03:55:00
10:15 PM,36.9,27.1,68,30.12,10.0,West,4.6,-,N/A,,Scattered Clouds,280,2013-02-03 04:15:00
10:35 PM,36.9,27.0,67,30.12,10.0,West,3.5,-,N/A,,Clear,270,2013-02-03 04:35:00
10:55 PM,36.1,26.8,69,30.11,10.0,Calm,Calm,-,N/A,,Clear,0,2013-02-03 04:55:00
11:15 PM,33.4,26.6,76,30.10,10.0,Calm,Calm,-,N/A,,Scattered Clouds,0,2013-02-03 05:15:00
11:35 PM,32.0,26.4,80,30.10,10.0,South,3.5,-,N/A,,Scattered Clouds,190,2013-02-03 05:35:00
11:55 PM,31.5,26.8,83,30.09,10.0,Calm,Calm,-,N/A,,Scattered Clouds,0,2013-02-03 05:55:00